Content
SEND FEEDBACK

Daily
Averages
Monthly
Summary
Tunisia

JEMMAL, TUNISIA


Home > Africa > Tunisia
Elevation: 10 feet     Latitude: 35 40N     Longitude: 010 45E

WEATHER
 
SELECT A DAY
Number of Records: 206,656;   Date Range: 2/20/97 - 7/10/14
 
SHARE

PRINT THIS DATA

[ ← Previous Day ]
WEATHER ALMANAC - FEBRUARY 13, 2013
[ Next Day → ]
[ °C ]   °F
Weather ElementAverageHighLow
Temperature51.1 °F57.2 °F (1:00 pm)44.6 °F (12:30 am)
Dewpoint37 °F42.8 °F (3:30 pm)33.8 °F (2:00 am)
Humidity59 %71 % (12:30 am)47 % (2:00 pm)
Barometer29.88 in29.92 in (9:00 pm)29.86 in (12:30 am)
Wind Speed13.8 mph25.3 mph (10:30 am)
Wind Gust41.4 mph (3:30 pm)
Weather ElementAverage
Visibility6.2 mi
Wind DirectionWSW (258.3 °)

Weather ElementTotal
Precipitation---
Heating Degree Days14.1 (Base 65)
Growing Degree Days0.9 (Base 50)
Averaged from 42 records on February 13, 2013
WEATHER CONDITIONS BREAKOUT
WIND DIRECTION BREAKOUT
WEATHER BY HOUR - FEBRUARY 13, 2013
[ °C ]   °F
Local TimeTemperatureDewpointHumidityBarometerVisibilityWind DirectionWind SpeedGust SpeedPrecipitationEventsConditions
12:30 AM44.6 °F35.6 °F71 %29.86 in6.2 miSW (220°)4.6 mphPartly Cloudy
1:00 AM44.6 °F35.6 °F71 %29.86 in6.2 miSouth (190°)6.9 mphPartly Cloudy
2:00 AM46.4 °F33.8 °F62 %29.86 in6.2 miSW (230°)11.5 mphPartly Cloudy
2:30 AM46.4 °F33.8 °F62 %29.86 in6.2 miSW (230°)12.7 mphPartly Cloudy
4:00 AM44.6 °F33.8 °F66 %29.86 in6.2 miSSW (200°)8.1 mphPartly Cloudy
4:30 AM46.4 °F33.8 °F62 %29.86 in6.2 miWest (270°)9.2 mphPartly Cloudy
5:00 AM48.2 °F35.6 °F62 %29.86 in6.2 miWest (260°)10.4 mphPartly Cloudy
5:30 AM46.4 °F35.6 °F66 %29.86 in6.2 miSouth (170°)3.5 mphPartly Cloudy
6:00 AM46.4 °F33.8 °F62 %29.86 in6.2 miSW (230°)4.6 mphPartly Cloudy
6:30 AM46.4 °F33.8 °F62 %29.86 in6.2 miSW (230°)10.4 mphPartly Cloudy
7:00 AM44.6 °F33.8 °F66 %29.86 in6.2 miWSW (240°)4.6 mphScattered Clouds
7:30 AM46.4 °F33.8 °F62 %29.86 in6.2 miWSW (240°)13.8 mphScattered Clouds
8:00 AM48.2 °F35.6 °F62 %29.89 in6.2 miWest (260°)13.8 mphScattered Clouds
9:00 AM50.0 °F37.4 °F62 %29.89 in6.2 miWest (280°)17.3 mphPartly Cloudy
9:30 AM51.8 °F35.6 °F54 %29.89 in6.2 miWest (260°)16.1 mphPartly Cloudy
10:00 AM53.6 °F35.6 °F51 %29.89 in6.2 miWest (270°)18.4 mphScattered Clouds
10:30 AM53.6 °F37.4 °F54 %29.89 in6.2 miWest (280°)25.3 mphScattered Clouds
11:00 AM51.8 °F37.4 °F58 %29.89 in6.2 miWest (280°)24.2 mphScattered Clouds
11:30 AM55.4 °F39.2 °F54 %29.89 in6.2 miWest (280°)19.6 mphScattered Clouds
12:00 PM55.4 °F39.2 °F54 %29.89 in6.2 miWest (280°)25.3 mphScattered Clouds
1:00 PM57.2 °F37.4 °F48 %29.89 in6.2 miWest (270°)19.6 mphScattered Clouds
1:30 PM57.2 °F37.4 °F48 %29.86 in6.2 miWest (280°)18.4 mphMostly Cloudy
2:00 PM55.4 °F35.6 °F47 %29.86 in6.2 miWest (270°)25.3 mphMostly Cloudy
2:30 PM55.4 °F35.6 °F47 %29.86 in6.2 miWest (270°)19.6 mphMostly Cloudy
3:00 PM55.4 °F37.4 °F51 %29.86 in6.2 miWest (270°)17.3 mphMostly Cloudy
3:30 PM51.8 °F42.8 °F71 %29.89 in4.3 miWNW (300°)21.9 mph41.4 mphRainLight Rain Showers
4:00 PM51.8 °F42.8 °F71 %29.89 in6.2 miWNW (290°)12.7 mphPartly Cloudy
4:30 PM53.6 °F41.0 °F62 %29.89 in6.2 miWest (270°)18.4 mphPartly Cloudy
5:00 PM53.6 °F39.2 °F58 %29.89 in6.2 miWest (270°)18.4 mphPartly Cloudy
5:30 PM53.6 °F39.2 °F58 %29.86 in6.2 miWest (270°)16.1 mphScattered Clouds
6:00 PM53.6 °F39.2 °F58 %29.89 in6.2 miWest (270°)12.7 mphScattered Clouds
6:30 PM53.6 °F37.4 °F54 %29.89 in6.2 miWest (280°)17.3 mphScattered Clouds
7:00 PM53.6 °F37.4 °F54 %29.89 in6.2 miWSW (240°)6.9 mphScattered Clouds
7:30 PM51.8 °F37.4 °F58 %29.89 in6.2 miWest (260°)10.4 mphScattered Clouds
8:00 PM53.6 °F37.4 °F54 %29.89 in6.2 miWest (260°)8.1 mphScattered Clouds
8:30 PM51.8 °F37.4 °F58 %29.89 in6.2 miWSW (250°)4.6 mphScattered Clouds
9:00 PM51.8 °F37.4 °F58 %29.92 in6.2 miWest (270°)8.1 mphScattered Clouds
9:30 PM51.8 °F37.4 °F58 %29.92 in6.2 miWest (270°)9.2 mphScattered Clouds
10:00 PM51.8 °F37.4 °F58 %29.92 in6.2 miWest (270°)10.4 mphScattered Clouds
10:30 PM51.8 °F39.2 °F62 %29.92 in6.2 miWest (280°)11.5 mphScattered Clouds
11:00 PM51.8 °F39.2 °F62 %29.92 in6.2 miWest (260°)12.7 mphScattered Clouds
11:30 PM51.8 °F39.2 °F62 %29.92 in6.2 miWest (280°)19.6 mphScattered Clouds
Hourly data recorded from DTMB, located miles away from Jemmal, Tunisia







STORIES FROM OUR PARTNERS